sat.trackr.live / text

‹ back to catalog

STARLINK-3847

NORAD 52333 · 2022-045C

PAYLOAD ACTIVE UNKNOWN

§ Identity

Operator
Country
US
Launch date
2022-04-29
Launch site
AFETR
Launch vehicle
Mass (kg)
RCS (m²)

Purposes: comms

External: N2YO · Heavens-Above · Gunter

§ Orbital elements

Epoch: 2026-05-25T05:28:54.374304Z

Period
95.44 min
Inclination
53.2159°
Eccentricity
0.0001184
Mean motion
15.08839314 rev/d
Perigee alt
538.9 km
Apogee alt
540.6 km
Semi-major
6,917.9 km
B*
3.3673e-6
RAAN
225.5251°
Arg perigee
85.4483°
Mean anomaly
274.6644°
Rev number
22,718

§ Raw data

STARLINK-38471 52333U 22045C   26145.22840711 -.00000234  00000+0  33673-5 0  99982 52333  53.2159 225.5251 0001184  85.4483 274.6644 15.08839314227186

JSON: /api/v1/satellites/52333 · /tle

For live sub-satellite position, see the globe view (requires WebGL).

§ Visibility from observer

Set your observer location to see the next 7 days of passes ≥ 10°. The values pass through the URL so the page stays shareable.

No JS? Fill the form by hand. The geolocation button needs JavaScript.